User: anonymous   Login
Location: Unspecified
(0.0000°N, 0.0000°E)
Time: 18:59:33
(UTC+00:00)
Language:

AUBIESAT-1 - Orbit

View from above orbital plane
View from above orbital plane
View from above satellite
View from above satellite

Ground track
Ground track

The orbit data is extracted from the following two-line orbital elements,

1 37854U 11061E   17113.83267406 +.00004539 +00000-0 +24933-3 0  9990
2 37854 101.7107 319.8027 0167956 235.7988 122.7208 15.03875648298314
Epoch (UTC): 23 April 2017 19:59:03
Eccentricity: 0.0167956
inclination: 101.7107°
perigee height: 438 km
apogee height: 671 km
right ascension of ascending node: 319.8027°
argument of perigee: 235.7988°
revolutions per day: 15.03875648
mean anomaly at epoch: 122.7208°
orbit number at epoch: 29831

The dashed part of the orbit path shows where the satellite is in the earth's shadow,  

DLR